WA3JKB Weather Reports


time (UTC)temp
F
wind
direction
speed
knots
gust
knots
rain 1hr
in
rain 24hr
in
rain mn
in
humidity
%
barometer
mb
20260504140516 60 248 0.9 6.1 0.00 0.00 0.00 58 1014.7
20260504130516 55 293 1.7 4.3 0.00 0.00 0.00 72 1015.2
20260504110516 45 0.0 1.7 0.00 0.00 0.00 75 1015.5
20260504100517 45 0.0 2.6 0.00 0.00 0.00 72 1015.7
20260504081516 43 156 0.0 0.0 0.00 0.00 0.00 69 1015.6
20260504080516 43 156 0.0 0.0 0.00 0.00 0.00 69 1015.5
20260504050515 44 129 0.0 0.0 0.00 0.00 0.00 68 1015.5
20260504045515 44 129 0.0 0.0 0.00 0.00 0.00 67 1015.4
20260504044516 44 129 0.0 0.0 0.00 0.00 0.00 66 1015.5
20260504043516 44 129 0.0 0.0 0.00 0.00 0.00 67 1015.4
20260504042515 45 129 0.0 0.0 0.00 0.00 0.00 66 1015.2
20260504041516 45 129 0.0 0.0 0.00 0.00 0.00 64 1015.1
20260504040516 46 129 0.0 0.0 0.00 0.00 0.00 62 1015.1
20260504035516 47 129 0.0 0.0 0.00 0.00 0.00 59 1015.0
20260504034515 47 0.0 0.9 0.00 0.00 0.00 58 1015.0
20260504033516 48 0.0 0.9 0.00 0.00 0.00 57 1015.0
20260504032515 48 0.0 0.9 0.00 0.00 0.00 56 1014.9
20260504031516 49 0.0 0.9 0.00 0.00 0.00 54 1014.8
20260504030516 49 142 0.0 0.0 0.00 0.00 0.00 53 1014.8
20260504025515 49 0.0 0.9 0.00 0.00 0.00 54 1014.7
20260504024516 50 0.0 0.9 0.00 0.00 0.00 52 1014.9
20260504023516 50 0.0 0.9 0.00 0.00 0.00 52 1014.9
20260504022516 50 0.0 0.9 0.00 0.00 0.00 51 1014.9
20260504021516 50 0.0 0.9 0.00 0.00 0.00 51 1014.8
20260504020515 51 138 0.0 0.0 0.00 0.00 0.00 51 1014.8
20260504015520 51 0.0 0.9 0.00 0.00 0.00 51 1014.8
20260504014516 51 0.0 0.9 0.00 0.00 0.00 50 1014.7
20260504013516 52 0.0 0.9 0.00 0.00 0.00 49 1014.5
20260504012515 52 237 0.0 0.0 0.00 0.00 0.00 48 1014.5
20260504011515 52 0.0 0.9 0.00 0.00 0.00 48 1014.4
20260504010515 52 0.0 1.7 0.00 0.00 0.00 48 1014.3
20260504005515 53 238 0.0 0.0 0.00 0.00 0.00 48 1014.3
20260504004515 53 0.0 0.9 0.00 0.00 0.00 47 1014.2
20260504003517 54 0.0 0.9 0.00 0.00 0.00 46 1014.0
20260504002518 55 0.0 0.9 0.00 0.00 0.00 44 1013.8
20260504001517 56 0.0 0.9 0.00 0.00 0.00 42 1013.8
20260504000517 57 248 0.9 6.1 0.00 0.00 0.00 40 1013.7
20260503235518 57 0.0 2.6 0.00 0.00 0.00 39 1013.6
20260503234515 58 270 0.9 3.5 0.00 0.00 0.00 38 1013.5
20260503233517 58 0.0 1.7 0.00 0.00 0.00 38 1013.4
20260503232517 59 293 1.7 4.3 0.00 0.00 0.00 36 1013.4
20260503231517 60 270 0.9 3.5 0.00 0.00 0.00 36 1013.4
20260503230517 60 248 1.7 10.4 0.00 0.00 0.00 35 1013.4
20260503225517 60 270 1.7 6.1 0.00 0.00 0.00 35 1013.3
20260503224518 60 248 0.9 6.1 0.00 0.00 0.00 34 1013.2
20260503223517 61 270 0.9 3.5 0.00 0.00 0.00 34 1013.2
20260503222517 61 270 1.7 6.1 0.00 0.00 0.00 34 1013.2
20260503221518 60 270 3.5 7.8 0.00 0.00 0.00 34 1013.3
20260503220517 61 293 2.6 7.8 0.00 0.00 0.00 33 1013.3
20260503215517 60 248 2.6 8.7 0.00 0.00 0.00 33 1013.3
20260503214518 60 293 2.6 6.1 0.00 0.00 0.00 33 1013.3
20260503213517 60 270 3.5 7.8 0.00 0.00 0.00 32 1013.4
20260503212518 61 270 2.6 6.1 0.00 0.00 0.00 32 1013.3
20260503211518 60 270 2.6 6.1 0.00 0.00 0.00 33 1013.2
20260503210518 61 270 2.6 8.7 0.00 0.00 0.00 33 1013.2
20260503205517 60 270 2.6 8.7 0.00 0.00 0.00 32 1013.3
20260503204517 59 270 2.6 7.0 0.00 0.00 0.00 33 1013.2
20260503203517 59 45 2.6 7.8 0.00 0.00 0.00 34 1013.3
20260503202517 59 45 1.7 6.1 0.00 0.00 0.00 37 1013.3
20260503201517 58 270 3.5 7.8 0.00 0.00 0.00 36 1013.6
20260503200517 58 270 3.5 11.3 0.00 0.00 0.00 34 1013.5
20260503195517 58 293 4.3 10.4 0.00 0.00 0.00 36 1013.6
20260503194518 58 293 4.3 10.4 0.00 0.00 0.00 36 1013.7
20260503193518 59 270 2.6 8.7 0.00 0.00 0.00 33 1013.9
20260503192517 58 293 5.2 13.0 0.00 0.00 0.00 37 1014.0
20260503191517 57 270 4.3 14.8 0.00 0.00 0.00 35 1013.9
20260503190517 57 293 1.7 5.2 0.00 0.00 0.00 37 1013.9
20260503185516 57 293 4.3 11.3 0.00 0.00 0.00 35 1014.2
20260503184518 57 248 2.6 7.8 0.00 0.00 0.00 37 1014.2
20260503183517 57 293 1.7 7.8 0.00 0.00 0.00 37 1014.2
20260503182517 57 90 2.6 7.8 0.00 0.00 0.00 37 1014.4
20260503181517 57 270 2.6 7.0 0.00 0.00 0.00 38 1014.2
20260503180516 56 45 2.6 7.0 0.00 0.00 0.00 35 1014.4
20260503175517 55 248 1.7 7.0 0.00 0.00 0.00 39 1014.5
20260503174518 54 270 3.5 12.2 0.00 0.00 0.00 38 1014.4
20260503173517 53 293 2.6 11.3 0.00 0.00 0.00 37 1014.5
20260503172516 54 293 2.6 6.1 0.00 0.00 0.00 37 1014.6
20260503171516 55 293 1.7 7.0 0.00 0.00 0.00 37 1014.6
20260503170516 54 23 0.9 5.2 0.00 0.00 0.00 40 1014.8
20260503150517 50 45 2.6 5.2 0.00 0.00 0.00 48 1015.4